Location: Sihaung
(22.8641°N, 94.0549°E)
Time: 12:46:52
(UTC+00:00)

NOSS 3-2 (A) - Pass Details

Date: 03 March 2021
Orbit: 780 x 1427 km, 63.4° (Epoch: 31 March)

Event Time Altitude Azimuth Distance (km) Brightness Sun altitude
Rises 12:52:58 0° 186° (S) 3,248 6.3 -15.7°
Reaches altitude 10° 12:55:29 10° 178° (S) 2,324 5.5 -16.3°
Maximum altitude 13:00:18 37° 111° (ESE) 1,230 3.6 -17.4°
Enters shadow 13:02:07 29° 72° (ENE) 1,462 3.9 -17.8°
